STARLINK AP (44272 NORAD) Tracking and Keplerian Element Data

This shows tracking and keplerian element data for the satellite.

Feedback or suggestion? Click here.




ElementValue
Catalog44272
NameSTARLINK AP
Epoch Orbit369
Epoch Day173.86519361
Epoch Year2019
RAAN38.3969
Inclination53.0011
Eccentricity0.0002552
Argument of Perigee128.1914
Mean Anonmoly231.9304
Mean Motion15.05474242
Decay Rate-5.003E-05
L11 44272U 19029AP 19173.86519361 -.00005003 00000-0 -32530-3 0 9996
L22 44272 53.0011 38.3969 0002552 128.1914 231.9304 15.05474242 3693

Live tracking and technical data element details for STARLINK AP (NORAD 44272). STARLINK AP can be tracked NOW for your location showing map with azimuth and elevation plus other details from your city location.

Track the satellite on the map from your city or location and see movement details for azimuth, elevation, latitude, longitude, range, height, and movement on the map or in text.







IsCatalogInMostPopularTable: catalog: 44272, numindb: 24
Update: records affected: 1



GetName: 44272 STARLINK AP

Hit Count: updated at: Fri, 19 Jul 2019 07:51:09 GMT